[[{"header":{"parameterUnit":"m.s-1","parameterCategory":1,"la1":30.2992,"la2":30.254,"lo1":-89.0895,"lo2":-89.0443,"dy":0.0025,"dx":0.0025,"nx":19,"ny":19,"refTime":"2026-05-04T21:00:00:Z","depth":0,"parameterNumber":2,"parameterNumberName":"U-component_of_WINDS"},"data":[0,0,0,-0.1717,-0.1717,-0.1749,-0.1749,-0.1787,-0.1787,0,0,0,0,0,0,0,0,0,0,0,-0.1705,-0.1705,-0.1717,-0.1717,-0.1749,-0.1749,-0.1787,-0.1787,0,0,0,0,0,0,0,0,0,0,0,-0.1705,-0.1705,-0.1705,-0.1718,-0.1749,-0.1749,-0.1787,-0.1764,0,0,0,0,0,0,0,0,0,0,-0.1734,-0.1721,-0.1705,-0.1705,-0.1718,-0.1749,-0.1749,-0.1763,-0.1765,-0.1771,0,-0.1775,0,-0.1782,-0.1789,-0.179,0,0,0,-0.1719,-0.1719,-0.1729,-0.1705,-0.1718,-0.1749,-0.1735,-0.1764,-0.1767,-0.1775,-0.1776,-0.1777,-0.1782,-0.179,-0.179,-0.1817,-0.1817,0,0,-0.1718,-0.171,-0.1727,-0.1731,-0.1725,-0.1734,-0.1736,-0.1766,-0.1767,-0.1776,-0.1778,-0.1783,-0.179,-0.179,-0.1817,-0.1817,0,0,0,-0.1711,-0.1708,-0.1718,-0.1729,-0.1735,-0.1735,-0.1737,-0.1766,-0.177,-0.1779,-0.1783,-0.179,-0.179,-0.1817,-0.1817,-0.1811,0,0,0,-0.1711,-0.1705,-0.1717,-0.1713,-0.1734,-0.175,-0.1736,-0.1767,-0.1771,-0.1783,-0.179,-0.1791,-0.1817,-0.1817,-0.1811,-0.181,0,0,0,-0.1704,-0.1704,-0.1707,-0.1712,-0.1725,-0.175,-0.1756,-0.1768,-0.1774,-0.179,-0.1791,-0.1817,-0.1817,-0.1811,-0.181,-0.1815,0,0,0,-0.1695,-0.1701,-0.1707,-0.1717,-0.1725,-0.1746,-0.1756,-0.1772,-0.1784,-0.179,-0.1817,-0.1817,-0.1811,-0.181,-0.1815,-0.1819,-0.1819,0,0,-0.1698,-0.1701,-0.1707,-0.1714,-0.1732,-0.1742,-0.1759,-0.1779,-0.1788,-0.1807,-0.1808,-0.1811,-0.181,-0.1815,-0.1824,-0.1824,0,0,0,-0.1706,-0.171,-0.1717,-0.1728,-0.1743,-0.1757,-0.1774,-0.1782,-0.1799,-0.1795,-0.1814,-0.1814,-0.1818,-0.182,-0.182,-0.1824,-0.1817,-0.1817,-0.1817,-0.1699,-0.1711,-0.1722,-0.1738,-0.175,-0.1769,-0.178,-0.1793,-0.1801,-0.1806,-0.1811,-0.1815,-0.1817,-0.1818,-0.1822,-0.1814,-0.1814,-0.1814,-0.1814,-0.1706,-0.1714,-0.1726,-0.1742,-0.1755,-0.1769,-0.1788,-0.1794,-0.181,-0.1811,-0.1815,-0.1816,-0.1817,-0.1822,-0.1813,-0.1813,-0.1814,-0.1814,-0.1814,-0.1703,-0.1709,-0.1719,-0.1738,-0.1752,-0.1769,-0.1784,-0.1795,-0.1806,-0.1809,-0.1818,-0.1818,-0.1821,-0.1813,-0.1813,-0.1813,-0.1813,-0.1813,-0.1813,-0.1696,-0.1707,-0.1718,-0.1736,-0.1746,-0.1761,-0.1782,-0.1792,-0.1807,-0.1815,-0.1815,-0.1824,-0.1815,-0.1813,-0.1813,-0.1813,-0.1813,-0.1813,-0.1813,-0.17,-0.1702,-0.1718,-0.1728,-0.1752,-0.1766,-0.1781,-0.1802,-0.1813,-0.182,-0.1829,-0.182,-0.1824,-0.1824,-0.1823,-0.1825,-0.1825,-0.1825,-0.1825,-0.1698,-0.1701,-0.1722,-0.1738,-0.1755,-0.1771,-0.1791,-0.1809,-0.1827,-0.1835,-0.1836,-0.1835,-0.1834,-0.1839,-0.1838,-0.1837,-0.1843,-0.1843,-0.1844,-0.1702,-0.1708,-0.1722,-0.1739,-0.1759,-0.1776,-0.1797,-0.1816,-0.1837,-0.1845,-0.1842,-0.1841,-0.1839,-0.1838,-0.1845,-0.1844,-0.1842,0,0]},{"header":{"parameterUnit":"m.s-1","parameterCategory":1,"la1":30.2992,"la2":30.254,"lo1":-89.0895,"lo2":-89.0443,"dy":0.0025,"dx":0.0025,"nx":19,"ny":19,"refTime":"2026-05-04T21:00:00:Z","depth":0,"parameterNumber":3,"parameterNumberName":"V-component_of_WINDS"},"data":[0,0,0,4.9243,4.9244,4.9322,4.9322,4.9434,4.9435,0,0,0,0,0,0,0,0,0,0,0,4.9231,4.9232,4.9242,4.9245,4.9322,4.9322,4.9434,4.9435,0,0,0,0,0,0,0,0,0,0,0,4.923,4.9231,4.9233,4.9245,4.9322,4.9322,4.9434,4.937,0,0,0,0,0,0,0,0,0,0,4.9293,4.9293,4.9231,4.9233,4.9245,4.9322,4.9322,4.9367,4.9374,4.9406,0,4.9439,0,4.9439,4.9444,4.9445,0,0,0,4.9236,4.9287,4.9298,4.9233,4.9246,4.9322,4.9285,4.9371,4.9379,4.9416,4.9441,4.9445,4.9441,4.9445,4.9446,4.9659,4.966,0,0,4.9232,4.925,4.9292,4.9304,4.9296,4.9282,4.9287,4.9375,4.9403,4.9441,4.9447,4.9443,4.9446,4.9447,4.9658,4.9659,0,0,0,4.9225,4.9248,4.9256,4.93,4.9313,4.9285,4.929,4.94,4.9401,4.9448,4.9444,4.9447,4.9448,4.9656,4.9658,4.9743,0,0,0,4.9222,4.9244,4.9255,4.9267,4.9312,4.9358,4.9313,4.9395,4.9404,4.9444,4.9447,4.9449,4.9655,4.9657,4.9737,4.9779,0,0,0,4.9222,4.9244,4.9259,4.9268,4.9302,4.9356,4.9362,4.9396,4.9402,4.9445,4.945,4.9654,4.9657,4.9732,4.9771,4.9837,0,0,0,4.9226,4.9336,4.9261,4.938,4.9301,4.9409,4.9361,4.9441,4.9488,4.9447,4.9655,4.9658,4.9731,4.9766,4.9832,4.9895,4.9924,0,0,4.9374,4.9354,4.9423,4.9358,4.9484,4.9396,4.9533,4.9559,4.9546,4.9621,4.9626,4.9739,4.9771,4.9836,5.0084,5.0107,0,0,0,4.9476,4.9525,4.9554,4.9599,4.9621,4.9641,4.9644,4.9652,4.9715,4.9589,4.9782,4.98,4.9838,4.9867,4.9887,4.9916,4.9673,4.9673,4.9673,4.9711,4.9687,4.9797,4.9782,4.9826,4.9825,4.9857,4.9868,4.9834,4.9879,4.9901,5.0054,5.0088,5.0103,5.0134,4.9935,4.9935,4.9935,4.9936,4.9922,4.9986,4.9934,5.0022,4.9995,5.0068,5.007,5.0042,5.0104,5.0037,5.0069,4.9995,5.0129,5.0154,4.9942,4.9941,4.994,4.9939,4.9939,5.0071,5.0097,5.0105,5.0163,5.0211,5.0191,5.0251,5.0226,5.0202,5.0234,5.0251,5.025,5.0241,5.0245,5.0245,5.0246,5.0246,5.0247,5.0247,5.0221,5.0227,5.0281,5.031,5.0332,5.0359,5.0356,5.0377,5.0393,5.037,5.037,5.0327,5.0148,5.0101,5.0255,5.0254,5.0253,5.0252,5.0251,5.0439,5.0384,5.0468,5.0491,5.0519,5.0565,5.0531,5.0574,5.0588,5.0618,5.0568,5.0441,5.0418,5.0402,5.0363,5.0576,5.0576,5.0576,5.0576,5.0562,5.0547,5.0624,5.066,5.0693,5.067,5.0761,5.0758,5.0747,5.0753,5.0719,5.0666,5.0651,5.0637,5.0616,5.0579,5.0842,5.0842,5.0842,5.0692,5.0678,5.0762,5.075,5.0769,5.0785,5.0868,5.091,5.0887,5.0852,5.0756,5.0745,5.0659,5.0633,5.0595,5.0563,5.0495,0,0]}]]